Simultaneous Nadir Overpasses (SNOs) Predictions

Prediction of SNOs between GOES-14 and AQUA Satellite Orbit:

Table of predicted SNOs for the next 14.0 days since TLE Epoch: 7/10/2021
Index Date Time (GOES-14) GOES-14 Lat,Lon AQUA Lat,Lon Distance(km) Time Diff (sec)
1 07/10/2021 08:17:19 -0.16,-104.09 -0.97,-100.28 433.43 80
2 07/10/2021 20:36:05 0.19,-104.34 -0.03,-105.49 130.75 80
3 07/12/2021 20:26:34 0.19,-104.34 0.57,-102.53 204.99 80
4 07/13/2021 08:45:10 -0.22,-104.09 0.52,-107.69 408.60 80
5 07/15/2021 08:32:59 -0.21,-104.09 -0.08,-104.73 72.69 80
6 07/17/2021 08:23:28 -0.21,-104.09 -0.69,-101.77 263.16 80
7 07/17/2021 20:42:14 0.24,-104.33 -0.31,-106.99 302.01 80
8 07/19/2021 20:32:43 0.24,-104.33 0.30,-104.03 33.48 80
9 07/21/2021 20:20:32 0.24,-104.32 0.91,-101.07 368.74 80
10 07/22/2021 08:39:08 -0.27,-104.09 0.17,-106.23 243.84 80
